Time,TemperatureF,DewpointF,PressureIn,WindDirection,WindDirectionDegrees,WindSpeedMPH,WindSpeedGustMPH,Humidity,HourlyPrecipIn,Conditions,Clouds,dailyrainin,SolarRadiationWatts/m^2,SoftwareType,DateUTC
2013-05-03 00:11:00,35.0,5.0,30.41,SSE,161,8.0,12.0,28,-99.99,,,-99.99,1.000000,,2013-05-03 07:11:00,
2013-05-03 00:21:00,34.0,6.0,30.41,SSE,150,10.0,13.0,30,-99.99,,,-99.99,0.000000,,2013-05-03 07:21:00,
2013-05-03 00:31:00,33.0,6.0,30.41,SE,141,10.0,13.0,31,-99.99,,,-99.99,0.000000,,2013-05-03 07:31:00,
2013-05-03 00:42:00,33.0,6.0,30.41,SE,133,10.0,13.0,31,-99.99,,,-99.99,0.000000,,2013-05-03 07:42:00,
2013-05-03 00:52:00,33.0,5.0,30.41,SE,138,12.0,15.0,29,-99.99,,,-99.99,0.000000,,2013-05-03 07:52:00,
2013-05-03 01:01:00,33.0,5.0,30.41,SE,138,12.0,15.0,29,-99.99,,,-99.99,0.000000,,2013-05-03 08:01:00,
2013-05-03 01:11:00,34.0,4.0,30.40,SSE,147,14.0,18.0,27,-99.99,,,-99.99,0.000000,,2013-05-03 08:11:00,
2013-05-03 01:21:00,34.0,4.0,30.40,SSE,147,14.0,18.0,27,-99.99,,,-99.99,0.000000,,2013-05-03 08:21:00,
2013-05-03 01:30:00,33.0,4.0,30.39,SE,142,10.0,12.0,29,-99.99,,,-99.99,0.000000,,2013-05-03 08:30:00,
2013-05-03 01:31:00,35.0,4.0,30.40,SSE,149,13.0,18.0,27,-99.99,,,-99.99,0.000000,,2013-05-03 08:31:00,
2013-05-03 01:42:00,33.0,4.0,30.39,SE,144,11.0,14.0,28,-99.99,,,-99.99,0.000000,,2013-05-03 08:42:00,
2013-05-03 01:52:00,33.0,4.0,30.39,SE,144,11.0,14.0,28,-99.99,,,-99.99,0.000000,,2013-05-03 08:52:00,
2013-05-03 02:01:00,33.0,5.0,30.39,SE,142,10.0,13.0,30,-99.99,,,-99.99,1.000000,,2013-05-03 09:01:00,
2013-05-03 02:11:00,33.0,4.0,30.39,SE,142,10.0,12.0,29,-99.99,,,-99.99,0.000000,,2013-05-03 09:11:00,
2013-05-03 02:21:00,33.0,4.0,30.39,SE,142,10.0,12.0,29,-99.99,,,-99.99,0.000000,,2013-05-03 09:21:00,
2013-05-03 03:02:00,34.0,2.0,30.37,SSE,150,12.0,15.0,26,-99.99,,,-99.99,2.000000,,2013-05-03 10:02:00,
2013-05-03 03:12:00,32.0,3.0,30.36,SSE,147,12.0,17.0,28,-99.99,,,-99.99,0.000000,,2013-05-03 10:12:00,
2013-05-03 03:22:00,32.0,3.0,30.36,SE,146,13.0,16.0,29,-99.99,,,-99.99,0.000000,,2013-05-03 10:22:00,
2013-05-03 03:32:00,32.0,3.0,30.36,SE,146,13.0,16.0,29,-99.99,,,-99.99,0.000000,,2013-05-03 10:32:00,
2013-05-03 03:42:00,32.0,3.0,30.35,SE,140,15.0,18.0,29,-99.99,,,-99.99,0.000000,,2013-05-03 10:42:00,
2013-05-03 03:52:00,32.0,3.0,30.35,SE,140,15.0,18.0,29,-99.99,,,-99.99,0.000000,,2013-05-03 10:52:00,
2013-05-03 04:02:00,32.0,3.0,30.34,SE,140,15.0,19.0,28,-99.99,,,-99.99,0.000000,,2013-05-03 11:02:00,
2013-05-03 04:11:00,31.0,3.0,30.34,SE,145,12.0,15.0,30,-99.99,,,-99.99,0.000000,,2013-05-03 11:11:00,
2013-05-03 04:22:00,31.0,3.0,30.34,SE,145,12.0,15.0,30,-99.99,,,-99.99,0.000000,,2013-05-03 11:22:00,
2013-05-03 04:30:00,28.0,3.0,30.33,SE,145,10.0,12.0,34,-99.99,,,-99.99,1.000000,,2013-05-03 11:30:00,
2013-05-03 04:31:00,30.0,3.0,30.34,SSE,149,13.0,16.0,31,-99.99,,,-99.99,0.000000,,2013-05-03 11:31:00,
2013-05-03 04:42:00,30.0,3.0,30.34,SSE,151,11.0,14.0,31,-99.99,,,-99.99,0.000000,,2013-05-03 11:42:00,
2013-05-03 04:51:00,30.0,3.0,30.34,SSE,151,11.0,14.0,31,-99.99,,,-99.99,0.000000,,2013-05-03 11:51:00,
2013-05-03 05:01:00,30.0,3.0,30.34,SSE,148,10.0,14.0,31,-99.99,,,-99.99,0.000000,,2013-05-03 12:01:00,
2013-05-03 05:11:00,29.0,3.0,30.33,SE,144,8.0,11.0,33,-99.99,,,-99.99,0.000000,,2013-05-03 12:11:00,
2013-05-03 05:21:00,28.0,3.0,30.33,SE,145,10.0,12.0,34,-99.99,,,-99.99,1.000000,,2013-05-03 12:21:00,
2013-05-03 05:30:00,27.0,4.0,30.31,SE,146,11.0,15.0,38,-99.99,,,-99.99,3.000000,,2013-05-03 12:30:00,
2013-05-03 05:40:00,27.0,4.0,30.31,SE,141,12.0,16.0,36,-99.99,,,-99.99,7.000000,,2013-05-03 12:40:00,
2013-05-03 05:42:00,27.0,3.0,30.32,SSE,148,9.0,12.0,35,-99.99,,,-99.99,0.000000,,2013-05-03 12:42:00,
2013-05-03 05:52:00,27.0,3.0,30.32,SSE,148,9.0,12.0,35,-99.99,,,-99.99,0.000000,,2013-05-03 12:52:00,
2013-05-03 06:01:00,26.0,5.0,30.31,SE,140,10.0,13.0,40,-99.99,,,-99.99,0.000000,,2013-05-03 13:01:00,
2013-05-03 06:11:00,27.0,4.0,30.31,SE,146,11.0,15.0,38,-99.99,,,-99.99,3.000000,,2013-05-03 13:11:00,
2013-05-03 06:22:00,27.0,4.0,30.31,SE,146,11.0,15.0,38,-99.99,,,-99.99,3.000000,,2013-05-03 13:22:00,
2013-05-03 06:40:00,29.0,4.0,30.31,SE,142,12.0,18.0,34,-99.99,,,-99.99,174.000000,,2013-05-03 13:40:00,
2013-05-03 07:02:00,27.0,4.0,30.30,SE,146,13.0,17.0,36,-99.99,,,-99.99,35.000000,,2013-05-03 14:02:00,
2013-05-03 07:11:00,29.0,3.0,30.30,SE,142,16.0,21.0,32,-99.99,,,-99.99,137.000000,,2013-05-03 14:11:00,
2013-05-03 07:21:00,29.0,4.0,30.31,SE,142,12.0,18.0,34,-99.99,,,-99.99,174.000000,,2013-05-03 14:21:00,
2013-05-03 07:32:00,29.0,4.0,30.31,SE,142,12.0,18.0,34,-99.99,,,-99.99,174.000000,,2013-05-03 14:32:00,
2013-05-03 08:01:00,36.0,5.0,30.30,SSE,157,12.0,16.0,27,-99.99,,,-99.99,329.000000,,2013-05-03 15:01:00,
2013-05-03 08:11:00,38.0,5.0,30.29,SSE,160,10.0,15.0,24,-99.99,,,-99.99,367.000000,,2013-05-03 15:11:00,
2013-05-03 08:20:00,49.0,7.0,30.27,SE,145,7.0,10.0,18,-99.99,,,-99.99,545.000000,,2013-05-03 15:20:00,
2013-05-03 08:22:00,41.0,5.0,30.29,SSE,156,10.0,13.0,22,-99.99,,,-99.99,405.000000,,2013-05-03 15:22:00,
2013-05-03 08:32:00,41.0,5.0,30.29,SSE,156,10.0,13.0,22,-99.99,,,-99.99,405.000000,,2013-05-03 15:32:00,
2013-05-03 08:43:00,45.0,7.0,30.28,SE,139,9.0,12.0,21,-99.99,,,-99.99,473.000000,,2013-05-03 15:43:00,
2013-05-03 08:53:00,47.0,7.0,30.27,SSE,148,8.0,11.0,19,-99.99,,,-99.99,511.000000,,2013-05-03 15:53:00,
2013-05-03 09:03:00,49.0,7.0,30.27,SE,145,7.0,10.0,18,-99.99,,,-99.99,545.000000,,2013-05-03 16:03:00,
2013-05-03 09:12:00,49.0,7.0,30.27,SE,145,7.0,10.0,18,-99.99,,,-99.99,545.000000,,2013-05-03 16:12:00,
2013-05-03 09:20:00,59.0,4.0,30.24,ESE,121,4.0,8.0,11,-99.99,,,-99.99,745.000000,,2013-05-03 16:20:00,
2013-05-03 09:42:00,56.0,4.0,30.25,SE,139,6.0,9.0,12,-99.99,,,-99.99,681.000000,,2013-05-03 16:42:00,
2013-05-03 09:52:00,56.0,4.0,30.25,SE,139,6.0,9.0,12,-99.99,,,-99.99,681.000000,,2013-05-03 16:52:00,
2013-05-03 10:02:00,59.0,4.0,30.24,ESE,121,4.0,8.0,11,-99.99,,,-99.99,745.000000,,2013-05-03 17:02:00,
2013-05-03 10:10:00,63.0,4.0,30.21,East,91,3.0,9.0,9,-99.99,,,-99.99,884.000000,,2013-05-03 17:10:00,
2013-05-03 10:12:00,59.0,4.0,30.24,ESE,121,4.0,8.0,11,-99.99,,,-99.99,745.000000,,2013-05-03 17:12:00,
2013-05-03 10:50:00,64.0,4.0,30.19,West,262,4.0,10.0,9,-99.99,,,-99.99,973.000000,,2013-05-03 17:50:00,
2013-05-03 11:01:00,63.0,4.0,30.21,East,91,3.0,9.0,9,-99.99,,,-99.99,884.000000,,2013-05-03 18:01:00,
2013-05-03 11:30:00,66.0,3.0,30.18,WSW,238,7.0,15.0,8,-99.99,,,-99.99,1037.000000,,2013-05-03 18:30:00,
2013-05-03 11:42:00,64.0,4.0,30.19,West,262,4.0,10.0,9,-99.99,,,-99.99,973.000000,,2013-05-03 18:42:00,
2013-05-03 12:10:00,68.0,4.0,30.16,SSW,203,11.0,18.0,8,-99.99,,,-99.99,1060.000000,,2013-05-03 19:10:00,
2013-05-03 12:21:00,66.0,3.0,30.18,WSW,238,7.0,15.0,8,-99.99,,,-99.99,1037.000000,,2013-05-03 19:21:00,
2013-05-03 12:50:00,68.0,5.0,30.14,SW,236,10.0,16.0,8,-99.99,,,-99.99,1077.000000,,2013-05-03 19:50:00,
2013-05-03 13:02:00,68.0,4.0,30.16,SSW,203,11.0,18.0,8,-99.99,,,-99.99,1060.000000,,2013-05-03 20:02:00,
2013-05-03 13:30:00,69.0,5.0,30.12,WSW,250,12.0,19.0,8,-99.99,,,-99.99,1051.000000,,2013-05-03 20:30:00,
2013-05-03 13:41:00,68.0,5.0,30.14,SW,236,10.0,16.0,8,-99.99,,,-99.99,1077.000000,,2013-05-03 20:41:00,
2013-05-03 14:10:00,70.0,6.0,30.10,West,277,12.0,19.0,8,-99.99,,,-99.99,1001.000000,,2013-05-03 21:10:00,
2013-05-03 14:21:00,69.0,5.0,30.12,WSW,250,12.0,19.0,8,-99.99,,,-99.99,1051.000000,,2013-05-03 21:21:00,
2013-05-03 14:50:00,71.0,7.0,30.08,WSW,240,15.0,25.0,8,-99.99,,,-99.99,936.000000,,2013-05-03 21:50:00,
2013-05-03 15:02:00,70.0,6.0,30.10,West,277,12.0,19.0,8,-99.99,,,-99.99,1001.000000,,2013-05-03 22:02:00,
2013-05-03 15:42:00,71.0,7.0,30.08,WSW,240,15.0,25.0,8,-99.99,,,-99.99,936.000000,,2013-05-03 22:42:00,
2013-05-03 16:50:00,71.0,7.0,30.04,WSW,257,17.0,27.0,8,-99.99,,,-99.99,573.000000,,2013-05-03 23:50:00,
2013-05-03 17:41:00,71.0,7.0,30.04,WSW,257,17.0,27.0,8,-99.99,,,-99.99,573.000000,,2013-05-04 00:41:00,
2013-05-03 18:10:00,68.0,7.0,30.03,WNW,300,17.0,27.0,9,-99.99,,,-99.99,60.000000,,2013-05-04 01:10:00,
2013-05-03 18:50:00,66.0,5.0,30.04,NW,317,15.0,21.0,9,-99.99,,,-99.99,34.000000,,2013-05-04 01:50:00,
2013-05-03 19:02:00,68.0,7.0,30.03,WNW,300,17.0,27.0,9,-99.99,,,-99.99,60.000000,,2013-05-04 02:02:00,
2013-05-03 19:30:00,63.0,5.0,30.04,NW,310,12.0,16.0,10,-99.99,,,-99.99,10.000000,,2013-05-04 02:30:00,
2013-05-03 19:41:00,66.0,5.0,30.04,NW,317,15.0,21.0,9,-99.99,,,-99.99,34.000000,,2013-05-04 02:41:00,
2013-05-03 20:10:00,56.0,6.0,30.05,WNW,290,5.0,10.0,13,-99.99,,,-99.99,0.000000,,2013-05-04 03:10:00,
2013-05-03 20:11:00,63.0,5.0,30.04,NW,310,12.0,16.0,10,-99.99,,,-99.99,10.000000,,2013-05-04 03:11:00,
2013-05-03 20:21:00,63.0,5.0,30.04,NW,310,12.0,16.0,10,-99.99,,,-99.99,10.000000,,2013-05-04 03:21:00,
2013-05-03 20:50:00,54.0,6.0,30.05,West,273,8.0,11.0,14,-99.99,,,-99.99,0.000000,,2013-05-04 03:50:00,
2013-05-03 21:02:00,56.0,6.0,30.05,WNW,290,5.0,10.0,13,-99.99,,,-99.99,0.000000,,2013-05-04 04:02:00,
2013-05-03 21:30:00,53.0,8.0,30.07,NNW,336,8.0,12.0,16,-99.99,,,-99.99,0.000000,,2013-05-04 04:30:00,
2013-05-03 21:42:00,54.0,6.0,30.05,West,273,8.0,11.0,14,-99.99,,,-99.99,0.000000,,2013-05-04 04:42:00,
2013-05-03 22:10:00,53.0,10.0,30.07,NNW,338,10.0,14.0,18,-99.99,,,-99.99,0.000000,,2013-05-04 05:10:00,
2013-05-03 22:22:00,53.0,8.0,30.07,NNW,336,8.0,12.0,16,-99.99,,,-99.99,0.000000,,2013-05-04 05:22:00,
2013-05-03 22:50:00,50.0,10.0,30.06,NNW,347,13.0,17.0,20,-99.99,,,-99.99,0.000000,,2013-05-04 05:50:00,
2013-05-03 23:01:00,53.0,10.0,30.07,NNW,338,10.0,14.0,18,-99.99,,,-99.99,0.000000,,2013-05-04 06:01:00,
2013-05-03 23:30:00,49.0,9.0,30.05,North,1,12.0,16.0,19,-99.99,,,-99.99,0.000000,,2013-05-04 06:30:00,
2013-05-03 23:41:00,50.0,10.0,30.06,NNW,347,13.0,17.0,20,-99.99,,,-99.99,0.000000,,2013-05-04 06:41:00,